EGSSLFBZ

Guest
Details From EGSS - London Stansted
To LFBZ - Biarritz Bayonne Anglet
Flight Number -
Tags Routegen
Created
Modified
Stats Distance 535 nm / 990 km
Max Altitude 0 ft / 0 m
Waypoints 6
Social Downloads 7
Likes 0
Share

Download

Looking for another format? Having issues loading an existing format? Contact us
Advertisement - Login to hide

Notes

None

Route

EGSS +51.77_+000.06 ARGED BD013 +43.47_+000.91 LFBZ

ID Type Via Altitude (ft/m) Position (lat/lon) Dist (leg/tot) Name
O EGSS APT - 0 / 0 51.87508 / 0.21993 - / 0 nm
+51.77_+000.06 DME - 0 / 0 51.76876 / 0.06105 8 / 8 nm
ARGED FIX - 0 / 0 48.92972 / -0.25000 170 / 179 nm
BD013 FIX - 0 / 0 45.05529 / -0.65263 233 / 412 nm
+43.47_+000.91 DME - 0 / 0 43.47333 / -0.91116 95 / 508 nm
O LFBZ APT - 0 / 0 43.46854 / -1.50942 26 / 534 nm

Altitude Profile

Advertisement - Login to hide

Weather


0- 5 10 15 20 25 30 35+ Temperature / °C

Clouds and Precipitation
Forecast for 2023-02-08 00:00 UTC. Updated 3 hours ago

Ground ~20,000 ft ~40,000 ft Winds

EGSS

Details ICAO EGSS (STN)
Name Stansted
Region United Kingdom
Timezone Europe/London (UTC+0.0)
Stats Elevation 348 ft / 106 m (AMSL)
Location 51.885100° 0.234989°
Runways 1
Magnetic Variation 0.395° E

METAR

EGSS 080020Z VRB01KT 0100 FZFG VV/// M00/M00 Q1038

Decode

TAF

TAF EGSS 072258Z 0800/0906 17004KT 5000 HZ NSC BECMG 0800/0803 0200 FZFG VV/// BECMG 0810/0812 6000 NSW FEW003 BECMG 0812/0814 CAVOK BECMG 0818/0821 8000 PROB30 TEMPO 0820/0906 4000 BR

Decode

Departure Runways

ID Width Length Bearing (true/mag) Surface Threshold Overrun Markings Lighting
04 151 ft / 46 m 9,984 ft / 3,043 m 42.78° / 42.39° ASPHALT 974 ft / 297 m 0 ft / 0 m PREC-APP CENTERLINE EDGE THRESHOLD CALVERT-ILS TDZ REIL-OMNI
22 151 ft / 46 m 9,984 ft / 3,043 m 222.81° / 222.41° ASPHALT 0 ft / 0 m 0 ft / 0 m PREC-APP CENTERLINE EDGE THRESHOLD CALVERT-ILS TDZ REIL-OMNI

LFBZ

Details ICAO LFBZ (BIQ)
Name Biarritz-Anglet-Bayonne
Region France
Timezone Europe/Paris (UTC+1.0)
Stats Elevation 245 ft / 75 m (AMSL)
Location 43.468400° -1.523330°
Runways 1
Magnetic Variation 0.410° E

METAR

LFBZ 080000Z AUTO 09003KT 5000 BR NSC 02/01 Q1028

Decode

TAF

TAF LFBZ 072300Z 0800/0824 09005KT CAVOK PROB40 0800/0809 3000 BR PROB30 TEMPO 0804/0808 0500 FG VV/// BECMG 0820/0822 VRB03KT

Decode

Destination Runways

ID Width Length Bearing (true/mag) Surface Threshold Overrun Markings Lighting
09 148 ft / 45 m 7,389 ft / 2,252 m 89.16° / 88.75° ASPHALT 686 ft / 209 m 0 ft / 0 m APP CENTERLINE EDGE THRESHOLD
27 148 ft / 45 m 7,389 ft / 2,252 m 269.18° / 268.77° ASPHALT 0 ft / 0 m 0 ft / 0 m PREC-APP CENTERLINE EDGE THRESHOLD

Approach Navaids

Runway Type Ident Frequency Range Bearing (true/mag) Slope Elevation
27 LOC-ILS BZ 111.35 MHz 18 nm / 33 km 269.17° / 268.76 ° - 245 ft / 75 m (AMSL)
27 GS BZ 111.35 MHz 10 nm / 19 km 269.17° / 268.76 ° 3.00° 245 ft / 75 m (AMSL)
27 DME BZ 111.35 MHz 18 nm / 33 km - - 223 ft / 68 m (AMSL)

Popular Alternatives